QPF
0.01 0.01 0.01 0.01 0.00 0.00 0.00 0.01 0.01 0.01 0.01 0.01 0.01 0.01 0.01 0.01 0.01 0.01 0.01 0.01 0.01 0.01 0.00 0.00 0.00 0.00 0.00 0.00 0.00 0.00 0.00 0.00 0.00 0.00 0.00 0.00 0.01 0.01 0.01 0.01 0.01 0.01 0.01
0.01 0.00 0.00 0.00 0.00 0.00 0.00 0.00 0.01 0.01 0.01 0.01 0.01 0.01 0.01 0.01 0.01 0.01 0.00 0.00 0.00 0.00 0.00 0.00 0.00 0.00 0.00 0.00 0.00 0.00 0.00 0.01 0.01 0.01 0.01 0.01 0.01 0.01 0.02 0.02 0.01 0.01 0.01
0.00 0.00 0.00 0.00 0.00 0.00 0.00 0.00 0.00 0.00 0.00 0.01 0.01 0.01 0.01 0.01 0.00 0.00 0.00 0.00 0.00 0.00 0.00 0.00 0.00 0.00 0.00 0.01 0.01 0.01 0.01 0.01 0.02 0.02 0.02 0.01 0.01 0.01 0.02 0.02 0.02 0.03 0.02
0.00 0.00 0.00 0.00 0.00 0.00 0.00 0.00 0.00 0.01 0.00 0.00 0.00 0.00 0.00 0.00 0.00 0.00 0.00 0.00 0.00 0.00 0.00 0.00 0.00 0.00 0.01 0.02 0.02 0.03 0.03 0.03 0.03 0.03 0.03 0.02 0.02 0.02 0.03 0.03 0.03 0.03 0.02
0.00 0.00 0.00 0.00 0.00 0.00 0.01 0.01 0.01 0.01 0.01 0.00 0.00 0.00 0.00 0.00 0.00 0.00 0.00 0.00 0.00 0.00 0.00 0.00 0.00 0.00 0.00 0.01 0.02 0.03 0.05 0.05 0.05 0.04 0.04 0.03 0.02 0.03 0.03 0.04 0.04 0.03 0.02
0.00 0.00 0.00 0.00 0.01 0.01 0.01 0.01 0.01 0.01 0.00 0.00 0.00 0.00 0.00 0.00 0.00 0.00 0.00 0.00 0.01 0.01 0.00 0.00 0.00 0.00 0.01 0.01 0.01 0.01 0.03 0.04 0.05 0.05 0.05 0.05 0.04 0.04 0.05 0.04 0.04 0.04 0.03
0.00 0.01 0.01 0.01 0.01 0.01 0.01 0.01 0.00 0.00 0.00 0.00 0.00 0.00 0.00 0.00 0.00 0.00 0.00 0.00 0.01 0.01 0.01 0.01 0.01 0.01 0.01 0.02 0.02 0.01 0.01 0.02 0.03 0.05 0.06 0.06 0.05 0.05 0.06 0.06 0.06 0.05 0.04
0.01 0.01 0.01 0.01 0.01 0.01 0.00 0.00 0.00 0.00 0.00 0.00 0.00 0.00 0.01 0.01 0.00 0.00 0.00 0.00 0.01 0.01 0.01 0.01 0.02 0.02 0.02 0.01 0.01 0.02 0.02 0.03 0.03 0.04 0.05 0.05 0.04 0.04 0.05 0.05 0.05 0.04 0.03
0.01 0.01 0.01 0.01 0.01 0.00 0.00 0.00 0.00 0.00 0.00 0.00 0.00 0.01 0.01 0.01 0.00 0.00 0.00 0.00 0.01 0.01 0.01 0.01 0.01 0.02 0.01 0.00 0.01 0.02 0.03 0.03 0.02 0.01 0.02 0.02 0.02 0.02 0.03 0.04 0.06 0.05 0.03
0.01 0.01 0.01 0.00 0.00 0.00 0.00 0.00 0.00 0.00 0.00 0.00 0.00 0.00 0.01 0.01 0.00 0.00 0.00 0.00 0.01 0.00 0.01 0.01 0.01 0.01 0.00 0.00 0.01 0.03 0.04 0.03 0.02 0.03 0.03 0.03 0.03 0.04 0.03 0.05 0.06 0.06 0.05
0.01 0.00 0.00 0.00 0.00 0.00 0.00 0.00 0.00 0.00 0.00 0.00 0.00 0.01 0.01 0.01 0.00 0.00 0.00 0.01 0.01 0.01 0.01 0.01 0.01 0.00 0.00 0.00 0.01 0.03 0.03 0.02 0.03 0.04 0.04 0.04 0.03 0.04 0.04 0.04 0.05 0.06 0.06
0.00 0.00 0.00 0.00 0.00 0.00 0.01 0.01 0.01 0.00 0.01 0.00 0.01 0.01 0.01 0.01 0.01 0.00 0.00 0.00 0.00 0.01 0.02 0.01 0.01 0.00 0.00 0.00 0.01 0.01 0.01 0.02 0.05 0.05 0.04 0.04 0.03 0.03 0.03 0.03 0.04 0.04 0.04
0.01 0.01 0.01 0.00 0.00 0.00 0.01 0.01 0.01 0.01 0.01 0.00 0.00 0.01 0.01 0.01 0.01 0.00 0.00 0.00 0.00 0.01 0.01 0.01 0.01 0.00 0.00 0.02 0.01 0.01 0.03 0.04 0.05 0.05 0.04 0.04 0.04 0.04 0.03 0.03 0.03 0.03 0.03
0.01 0.01 0.01 0.01 0.01 0.01 0.01 0.01 0.01 0.01 0.01 0.01 0.01 0.01 0.01 0.01 0.01 0.00 0.00 0.00 0.00 0.00 0.01 0.01 0.01 0.01 0.02 0.02 0.03 0.03 0.05 0.05 0.05 0.05 0.04 0.03 0.03 0.03 0.03 0.03 0.03 0.02 0.02
0.01 0.01 0.01 0.01 0.01 0.01 0.01 0.00 0.00 0.00 0.00 0.00 0.01 0.01 0.01 0.01 0.01 0.00 0.00 0.00 0.00 0.00 0.01 0.01 0.02 0.02 0.02 0.03 0.03 0.04 0.05 0.05 0.04 0.05 0.04 0.03 0.03 0.02 0.02 0.02 0.03 0.02 0.02
0.01 0.01 0.01 0.01 0.01 0.01 0.01 0.01 0.00 0.00 0.00 0.00 0.00 0.00 0.00 0.00 0.00 0.00 0.00 0.00 0.00 0.00 0.01 0.01 0.01 0.02 0.02 0.03 0.03 0.03 0.04 0.04 0.04 0.04 0.04 0.03 0.03 0.03 0.02 0.02 0.02 0.02 0.02
0.00 0.01 0.01 0.01 0.01 0.00 0.00 0.01 0.01 0.01 0.00 0.00 0.00 0.00 0.00 0.00 0.00 0.00 0.00 0.01 0.01 0.01 0.02 0.02 0.02 0.02 0.02 0.02 0.02 0.03 0.03 0.03 0.03 0.03 0.04 0.03 0.03 0.02 0.02 0.02 0.02 0.02 0.02
0.00 0.00 0.00 0.01 0.00 0.00 0.00 0.00 0.00 0.01 0.01 0.01 0.01 0.01 0.01 0.01 0.01 0.01 0.01 0.01 0.01 0.01 0.02 0.03 0.03 0.03 0.02 0.02 0.01 0.02 0.02 0.02 0.02 0.02 0.03 0.03 0.02 0.02 0.02 0.02 0.02 0.01 0.02
0.00 0.00 0.00 0.00 0.00 0.00 0.00 0.00 0.00 0.01 0.01 0.01 0.01 0.01 0.01 0.01 0.01 0.02 0.02 0.01 0.02 0.02 0.02 0.03 0.03 0.03 0.02 0.02 0.01 0.01 0.02 0.02 0.02 0.02 0.02 0.02 0.02 0.02 0.02 0.01 0.01 0.01 0.01
0.00 0.00 0.00 0.00 0.00 0.00 0.00 0.00 0.00 0.00 0.01 0.01 0.01 0.01 0.01 0.01 0.01 0.01 0.02 0.02 0.02 0.02 0.02 0.02 0.02 0.02 0.02 0.02 0.01 0.01 0.01 0.01 0.01 0.02 0.02 0.02 0.02 0.02 0.01 0.01 0.01 0.01 0.01
0.00 0.00 0.00 0.00 0.00 0.00 0.00 0.00 0.00 0.00 0.01 0.01 0.01 0.02 0.02 0.02 0.02 0.02 0.02 0.02 0.02 0.02 0.02 0.01 0.01 0.01 0.01 0.01 0.01 0.01 0.01 0.01 0.01 0.01 0.01 0.01 0.01 0.01 0.01 0.01 0.01 0.01 0.01
0.00 0.00 0.00 0.00 0.00 0.00 0.00 0.00 0.00 0.00 0.01 0.01 0.01 0.02 0.02 0.02 0.02 0.02 0.03 0.03 0.03 0.03 0.02 0.01 0.01 0.00 0.00 0.00 0.00 0.00 0.01 0.00 0.00 0.01 0.01 0.01 0.01 0.01 0.01 0.00 0.00 0.00 0.00
0.00 0.00 0.00 0.00 0.00 0.00 0.00 0.00 0.00 0.00 0.01 0.01 0.01 0.01 0.01 0.02 0.02 0.02 0.03 0.03 0.02 0.02 0.02 0.01 0.01 0.00 0.00 0.00 0.00 0.00 0.00 0.00 0.00 0.01 0.01 0.01 0.00 0.00 0.00 0.00 0.00 0.00 0.00
0.00 0.00 0.00 0.00 0.00 0.00 0.00 0.00 0.00 0.00 0.00 0.00 0.01 0.01 0.01 0.02 0.02 0.01 0.01 0.02 0.02 0.02 0.01 0.00 0.00 0.00 0.00 0.00 0.00 0.00 0.00 0.00 0.00 0.01 0.01 0.01 0.00 0.00 0.00 0.00 0.00 0.00 0.00
0.00 0.00 0.00 0.00 0.00 0.00 0.00 0.00 0.00 0.00 0.00 0.00 0.01 0.01 0.01 0.01 0.01 0.01 0.01 0.01 0.02 0.01 0.01 0.00 0.00 0.00 0.00 0.00 0.00 0.00 0.00 0.00 0.00 0.00 0.01 0.01 0.00 0.00 0.00 0.00 0.00 0.00 0.00
0.00 0.00 0.00 0.00 0.00 0.00 0.00 0.00 0.00 0.00 0.00 0.00 0.00 0.00 0.01 0.01 0.01 0.01 0.01 0.01 0.01 0.01 0.00 0.00 0.00 0.00 0.00 0.00 0.00 0.00 0.00 0.00 0.00 0.00 0.00 0.01 0.01 0.00 0.01 0.00 0.00 0.00 0.01
MSLP
1016.83 1017.32 1017.83 1018.32 1018.79 1019.24 1019.67 1020.10 1020.54 1020.98 1021.41 1021.82 1022.17 1022.43 1022.60 1022.67 1022.65 1022.56 1022.44 1022.29 1022.16 1022.04 1021.93 1021.82 1021.68 1021.50 1021.24 1020.91 1020.50 1020.05 1019.55 1019.05 1018.56 1018.11 1017.70 1017.33 1016.98 1016.66 1016.33 1016.00 1015.67 1015.33 1015.00
1017.83 1018.28 1018.75 1019.21 1019.65 1020.06 1020.47 1020.86 1021.26 1021.66 1022.04 1022.38 1022.66 1022.86 1022.96 1022.97 1022.89 1022.74 1022.56 1022.37 1022.20 1022.05 1021.92 1021.80 1021.66 1021.49 1021.25 1020.94 1020.56 1020.12 1019.63 1019.13 1018.63 1018.14 1017.69 1017.27 1016.86 1016.47 1016.07 1015.67 1015.25 1014.82 1014.39
1018.88 1019.30 1019.73 1020.13 1020.51 1020.87 1021.21 1021.55 1021.89 1022.23 1022.55 1022.84 1023.07 1023.22 1023.28 1023.24 1023.12 1022.93 1022.71 1022.48 1022.26 1022.07 1021.91 1021.76 1021.61 1021.43 1021.20 1020.91 1020.55 1020.12 1019.65 1019.14 1018.63 1018.13 1017.65 1017.19 1016.74 1016.30 1015.85 1015.38 1014.90 1014.39 1013.88
1019.97 1020.35 1020.71 1021.05 1021.36 1021.63 1021.90 1022.16 1022.43 1022.70 1022.97 1023.22 1023.41 1023.53 1023.57 1023.51 1023.36 1023.15 1022.90 1022.63 1022.37 1022.13 1021.92 1021.74 1021.55 1021.35 1021.12 1020.82 1020.46 1020.04 1019.57 1019.07 1018.55 1018.04 1017.54 1017.05 1016.58 1016.11 1015.62 1015.12 1014.59 1014.02 1013.44
1021.02 1021.36 1021.66 1021.92 1022.13 1022.32 1022.49 1022.66 1022.86 1023.07 1023.30 1023.51 1023.69 1023.80 1023.83 1023.77 1023.62 1023.40 1023.12 1022.82 1022.52 1022.23 1021.97 1021.73 1021.49 1021.25 1020.98 1020.67 1020.30 1019.87 1019.39 1018.89 1018.36 1017.83 1017.32 1016.82 1016.33 1015.85 1015.36 1014.84 1014.28 1013.69 1013.06
1021.98 1022.26 1022.50 1022.67 1022.79 1022.88 1022.96 1023.06 1023.19 1023.35 1023.54 1023.73 1023.90 1024.02 1024.06 1024.02 1023.88 1023.65 1023.36 1023.03 1022.68 1022.34 1022.01 1021.71 1021.41 1021.12 1020.80 1020.45 1020.05 1019.60 1019.10 1018.58 1018.04 1017.50 1016.97 1016.47 1015.98 1015.50 1015.02 1014.51 1013.96 1013.37 1012.73
1022.75 1022.98 1023.14 1023.24 1023.28 1023.29 1023.30 1023.33 1023.41 1023.53 1023.70 1023.88 1024.06 1024.19 1024.25 1024.22 1024.09 1023.87 1023.57 1023.21 1022.82 1022.42 1022.03 1021.65 1021.29 1020.93 1020.56 1020.15 1019.71 1019.23 1018.71 1018.16 1017.60 1017.05 1016.52 1016.01 1015.53 1015.07 1014.61 1014.13 1013.62 1013.05 1012.43
1023.28 1023.46 1023.56 1023.59 1023.58 1023.53 1023.49 1023.49 1023.53 1023.64 1023.79 1023.97 1024.15 1024.30 1024.37 1024.36 1024.24 1024.01 1023.70 1023.31 1022.88 1022.43 1021.98 1021.54 1021.11 1020.69 1020.26 1019.80 1019.32 1018.80 1018.25 1017.67 1017.10 1016.53 1015.99 1015.49 1015.03 1014.59 1014.17 1013.74 1013.27 1012.75 1012.17
1023.56 1023.69 1023.74 1023.74 1023.69 1023.62 1023.56 1023.54 1023.58 1023.68 1023.83 1024.02 1024.20 1024.35 1024.43 1024.42 1024.30 1024.07 1023.74 1023.33 1022.86 1022.37 1021.86 1021.37 1020.88 1020.40 1019.92 1019.42 1018.90 1018.35 1017.77 1017.18 1016.58 1016.01 1015.47 1014.98 1014.53 1014.12 1013.74 1013.35 1012.94 1012.48 1011.96
1023.61 1023.70 1023.73 1023.71 1023.66 1023.59 1023.55 1023.54 1023.59 1023.70 1023.85 1024.04 1024.22 1024.37 1024.44 1024.42 1024.29 1024.04 1023.69 1023.26 1022.76 1022.23 1021.69 1021.16 1020.63 1020.11 1019.59 1019.06 1018.50 1017.93 1017.34 1016.73 1016.13 1015.56 1015.02 1014.54 1014.11 1013.72 1013.37 1013.03 1012.67 1012.27 1011.79
1023.51 1023.58 1023.60 1023.59 1023.55 1023.52 1023.50 1023.53 1023.60 1023.73 1023.89 1024.07 1024.24 1024.37 1024.43 1024.38 1024.23 1023.96 1023.59 1023.14 1022.62 1022.07 1021.51 1020.94 1020.39 1019.84 1019.30 1018.74 1018.18 1017.59 1016.99 1016.39 1015.79 1015.22 1014.69 1014.22 1013.81 1013.44 1013.12 1012.81 1012.48 1012.12 1011.69
1023.34 1023.39 1023.42 1023.43 1023.43 1023.44 1023.48 1023.54 1023.65 1023.79 1023.96 1024.14 1024.29 1024.39 1024.42 1024.35 1024.17 1023.88 1023.49 1023.01 1022.48 1021.92 1021.34 1020.76 1020.19 1019.63 1019.07 1018.51 1017.94 1017.36 1016.76 1016.16 1015.58 1015.02 1014.51 1014.05 1013.64 1013.29 1012.98 1012.69 1012.38 1012.04 1011.63
1023.15 1023.20 1023.25 1023.29 1023.34 1023.40 1023.49 1023.60 1023.74 1023.90 1024.07 1024.24 1024.37 1024.45 1024.44 1024.34 1024.13 1023.82 1023.41 1022.92 1022.38 1021.81 1021.22 1020.64 1020.06 1019.49 1018.92 1018.36 1017.79 1017.21 1016.62 1016.04 1015.48 1014.94 1014.44 1014.00 1013.61 1013.27 1012.96 1012.67 1012.37 1012.04 1011.64
1022.99 1023.05 1023.12 1023.20 1023.29 1023.40 1023.53 1023.68 1023.85 1024.03 1024.21 1024.37 1024.48 1024.53 1024.50 1024.37 1024.13 1023.81 1023.39 1022.89 1022.35 1021.77 1021.17 1020.58 1019.99 1019.41 1018.83 1018.26 1017.69 1017.12 1016.55 1015.98 1015.44 1014.93 1014.46 1014.03 1013.66 1013.33 1013.03 1012.75 1012.45 1012.12 1011.73
1022.87 1022.94 1023.03 1023.14 1023.27 1023.41 1023.58 1023.77 1023.96 1024.16 1024.34 1024.49 1024.59 1024.62 1024.57 1024.42 1024.18 1023.84 1023.42 1022.92 1022.37 1021.79 1021.18 1020.58 1019.97 1019.37 1018.78 1018.19 1017.62 1017.05 1016.49 1015.94 1015.42 1014.94 1014.50 1014.11 1013.76 1013.45 1013.17 1012.89 1012.60 1012.28 1011.90
1022.79 1022.86 1022.96 1023.08 1023.23 1023.40 1023.60 1023.81 1024.02 1024.23 1024.42 1024.57 1024.67 1024.70 1024.64 1024.49 1024.24 1023.91 1023.49 1022.99 1022.44 1021.85 1021.24 1020.61 1019.98 1019.36 1018.74 1018.14 1017.54 1016.97 1016.41 1015.89 1015.39 1014.94 1014.54 1014.18 1013.87 1013.59 1013.34 1013.09 1012.82 1012.53 1012.18
1022.71 1022.78 1022.87 1023.00 1023.15 1023.34 1023.55 1023.78 1024.00 1024.23 1024.43 1024.59 1024.69 1024.73 1024.68 1024.54 1024.31 1023.98 1023.58 1023.09 1022.54 1021.95 1021.32 1020.67 1020.02 1019.36 1018.72 1018.08 1017.47 1016.89 1016.33 1015.82 1015.35 1014.92 1014.55 1014.24 1013.97 1013.73 1013.52 1013.32 1013.10 1012.86 1012.56
1022.64 1022.68 1022.76 1022.87 1023.03 1023.21 1023.43 1023.66 1023.91 1024.14 1024.35 1024.53 1024.65 1024.70 1024.68 1024.56 1024.35 1024.05 1023.66 1023.19 1022.65 1022.06 1021.42 1020.76 1020.08 1019.40 1018.72 1018.06 1017.43 1016.83 1016.27 1015.76 1015.31 1014.91 1014.58 1014.30 1014.07 1013.88 1013.72 1013.57 1013.41 1013.23 1013.01
1022.56 1022.57 1022.62 1022.72 1022.86 1023.04 1023.26 1023.50 1023.75 1023.99 1024.22 1024.41 1024.56 1024.64 1024.64 1024.55 1024.37 1024.10 1023.74 1023.29 1022.77 1022.19 1021.55 1020.88 1020.19 1019.49 1018.79 1018.11 1017.46 1016.85 1016.28 1015.78 1015.33 1014.95 1014.63 1014.38 1014.18 1014.03 1013.91 1013.81 1013.71 1013.60 1013.46
1022.49 1022.47 1022.50 1022.58 1022.70 1022.87 1023.08 1023.32 1023.57 1023.82 1024.06 1024.28 1024.44 1024.54 1024.57 1024.52 1024.38 1024.14 1023.82 1023.40 1022.91 1022.34 1021.72 1021.06 1020.37 1019.67 1018.96 1018.27 1017.61 1016.99 1016.42 1015.90 1015.45 1015.07 1014.76 1014.52 1014.33 1014.19 1014.10 1014.03 1013.97 1013.91 1013.83
1022.48 1022.43 1022.43 1022.48 1022.59 1022.75 1022.94 1023.17 1023.43 1023.68 1023.93 1024.15 1024.33 1024.46 1024.51 1024.49 1024.38 1024.18 1023.89 1023.51 1023.05 1022.52 1021.93 1021.30 1020.63 1019.94 1019.24 1018.56 1017.90 1017.27 1016.70 1016.17 1015.71 1015.31 1014.98 1014.72 1014.51 1014.36 1014.26 1014.19 1014.14 1014.10 1014.06
1022.53 1022.46 1022.44 1022.47 1022.56 1022.71 1022.90 1023.12 1023.36 1023.61 1023.86 1024.08 1024.27 1024.40 1024.47 1024.46 1024.38 1024.21 1023.96 1023.63 1023.21 1022.73 1022.18 1021.59 1020.96 1020.30 1019.63 1018.97 1018.32 1017.70 1017.11 1016.57 1016.08 1015.66 1015.29 1014.98 1014.73 1014.54 1014.39 1014.28 1014.21 1014.15 1014.11
1022.66 1022.58 1022.55 1022.57 1022.65 1022.79 1022.96 1023.17 1023.40 1023.63 1023.87 1024.08 1024.25 1024.39 1024.46 1024.47 1024.40 1024.26 1024.04 1023.75 1023.38 1022.95 1022.45 1021.91 1021.33 1020.72 1020.09 1019.46 1018.83 1018.21 1017.62 1017.07 1016.55 1016.08 1015.66 1015.30 1014.98 1014.72 1014.50 1014.33 1014.19 1014.09 1014.01
1022.86 1022.78 1022.75 1022.77 1022.85 1022.97 1023.13 1023.32 1023.53 1023.75 1023.96 1024.15 1024.31 1024.42 1024.49 1024.50 1024.44 1024.32 1024.13 1023.87 1023.55 1023.16 1022.72 1022.24 1021.71 1021.15 1020.56 1019.97 1019.36 1018.76 1018.17 1017.60 1017.06 1016.55 1016.08 1015.64 1015.26 1014.91 1014.62 1014.36 1014.15 1013.98 1013.84
1023.11 1023.05 1023.03 1023.05 1023.13 1023.24 1023.39 1023.56 1023.75 1023.93 1024.12 1024.28 1024.41 1024.51 1024.57 1024.57 1024.52 1024.41 1024.24 1024.01 1023.72 1023.38 1022.99 1022.55 1022.07 1021.56 1021.02 1020.45 1019.88 1019.29 1018.71 1018.14 1017.57 1017.03 1016.51 1016.02 1015.57 1015.16 1014.79 1014.46 1014.17 1013.93 1013.72
1023.39 1023.35 1023.34 1023.38 1023.46 1023.57 1023.70 1023.85 1024.01 1024.18 1024.33 1024.47 1024.58 1024.66 1024.70 1024.69 1024.64 1024.54 1024.38 1024.17 1023.91 1023.60 1023.25 1022.85 1022.41 1021.93 1021.43 1020.90 1020.35 1019.79 1019.22 1018.64 1018.07 1017.51 1016.97 1016.45 1015.96 1015.50 1015.08 1014.69 1014.35 1014.05 1013.79
Thickness
5645 5640 5634 5628 5621 5615 5607 5600 5593 5587 5581 5575 5569 5563 5558 5553 5548 5543 5540 5534 5530 5525 5520 5517 5513 5508 5506 5503 5501 5499 5495 5492 5492 5490 5483 5478 5473 5469 5467 5465 5464 5463 5464
5628 5623 5617 5610 5604 5597 5590 5583 5577 5571 5565 5558 5553 5547 5542 5536 5531 5527 5523 5518 5514 5509 5505 5501 5498 5495 5491 5488 5486 5482 5479 5474 5470 5470 5467 5463 5460 5456 5455 5452 5452 5452 5452
5611 5605 5599 5593 5587 5580 5574 5567 5561 5554 5548 5542 5537 5531 5525 5520 5515 5510 5506 5502 5498 5494 5490 5486 5484 5480 5477 5475 5470 5468 5464 5460 5456 5454 5454 5451 5448 5446 5444 5443 5443 5442 5443
5593 5588 5581 5575 5569 5563 5556 5550 5543 5537 5531 5525 5520 5515 5510 5505 5500 5496 5491 5487 5483 5480 5476 5473 5470 5467 5463 5460 5457 5454 5450 5447 5444 5442 5441 5440 5439 5438 5436 5436 5437 5437 5437
5576 5570 5563 5557 5550 5544 5538 5531 5525 5520 5515 5509 5504 5499 5494 5490 5482 5476 5475 5474 5470 5467 5465 5462 5459 5454 5448 5443 5442 5441 5438 5436 5434 5432 5432 5432 5432 5431 5430 5430 5428 5429 5431
5558 5552 5545 5538 5532 5526 5519 5513 5508 5503 5497 5493 5488 5484 5479 5474 5462 5457 5454 5457 5457 5456 5454 5451 5448 5445 5441 5434 5430 5427 5425 5425 5427 5425 5426 5426 5426 5425 5425 5423 5422 5423 5425
5539 5533 5526 5521 5515 5509 5504 5498 5492 5487 5482 5477 5472 5468 5464 5455 5447 5443 5441 5442 5445 5444 5442 5439 5437 5436 5430 5428 5425 5423 5422 5421 5419 5419 5421 5422 5422 5421 5419 5419 5417 5416 5419
5521 5515 5509 5505 5499 5494 5488 5482 5476 5471 5467 5462 5457 5453 5449 5442 5435 5431 5429 5432 5435 5433 5432 5429 5427 5425 5422 5417 5416 5419 5421 5422 5420 5420 5420 5420 5420 5418 5416 5415 5414 5414 5416
5505 5500 5494 5489 5484 5478 5473 5467 5461 5457 5453 5449 5444 5439 5436 5431 5423 5419 5416 5423 5424 5423 5422 5421 5419 5416 5412 5408 5411 5417 5420 5422 5422 5420 5419 5418 5417 5415 5413 5412 5413 5412 5413
5491 5485 5479 5474 5469 5463 5458 5453 5448 5444 5440 5436 5432 5427 5423 5420 5413 5408 5405 5412 5413 5413 5414 5414 5413 5410 5406 5406 5410 5415 5418 5420 5421 5422 5421 5421 5420 5418 5415 5412 5411 5410 5410
5477 5471 5466 5460 5455 5450 5444 5440 5436 5432 5427 5424 5420 5417 5412 5408 5405 5400 5397 5400 5402 5404 5407 5409 5410 5406 5405 5406 5408 5413 5415 5414 5418 5420 5421 5422 5421 5418 5416 5414 5411 5409 5408
5464 5459 5454 5448 5444 5439 5433 5428 5424 5420 5417 5414 5410 5407 5404 5400 5397 5394 5392 5392 5392 5398 5402 5405 5406 5404 5406 5409 5412 5414 5414 5416 5420 5421 5421 5421 5419 5417 5416 5414 5412 5410 5407
5454 5448 5442 5437 5431 5427 5423 5419 5415 5411 5407 5404 5401 5398 5395 5394 5392 5389 5389 5390 5392 5395 5400 5401 5403 5406 5409 5415 5416 5416 5418 5421 5421 5421 5421 5420 5417 5415 5414 5414 5413 5411 5409
5444 5438 5432 5427 5422 5416 5412 5410 5406 5401 5398 5395 5392 5389 5388 5387 5386 5384 5385 5389 5392 5397 5400 5403 5406 5409 5413 5415 5419 5422 5422 5422 5421 5421 5420 5419 5417 5415 5414 5412 5411 5410 5409
5434 5429 5423 5419 5414 5407 5404 5398 5394 5390 5384 5382 5384 5382 5380 5380 5377 5374 5377 5383 5387 5392 5395 5403 5408 5412 5415 5418 5421 5422 5423 5424 5424 5421 5420 5419 5418 5416 5414 5412 5411 5409 5408
5427 5422 5417 5412 5406 5403 5399 5394 5382 5380 5376 5373 5371 5370 5373 5372 5372 5375 5378 5381 5386 5390 5396 5402 5406 5410 5413 5416 5419 5422 5424 5425 5424 5423 5421 5419 5418 5416 5415 5414 5411 5409 5408
5419 5414 5411 5407 5403 5399 5395 5392 5387 5378 5374 5372 5370 5369 5369 5370 5373 5376 5380 5384 5389 5392 5398 5401 5404 5408 5412 5416 5420 5423 5425 5426 5426 5425 5423 5421 5419 5418 5416 5414 5412 5410 5409
5415 5409 5405 5403 5399 5396 5393 5389 5386 5383 5380 5377 5373 5370 5371 5373 5375 5378 5382 5387 5393 5397 5399 5402 5405 5409 5413 5417 5422 5425 5427 5429 5429 5428 5425 5423 5421 5419 5418 5416 5413 5411 5409
5413 5410 5405 5402 5399 5396 5392 5389 5386 5382 5379 5377 5376 5375 5374 5377 5379 5381 5385 5390 5392 5396 5400 5404 5407 5412 5416 5420 5424 5427 5430 5431 5430 5430 5428 5426 5423 5421 5419 5418 5415 5410 5411
5412 5400 5400 5402 5400 5397 5393 5390 5386 5383 5380 5377 5375 5374 5375 5379 5382 5384 5387 5390 5393 5397 5401 5405 5409 5414 5419 5423 5427 5430 5432 5434 5434 5433 5432 5430 5427 5425 5423 5421 5419 5417 5414
5416 5408 5397 5404 5402 5398 5394 5391 5388 5385 5382 5379 5377 5375 5374 5380 5382 5385 5387 5390 5394 5398 5402 5406 5412 5417 5421 5425 5428 5431 5434 5436 5436 5435 5434 5433 5431 5429 5427 5425 5423 5421 5419
5417 5414 5409 5407 5402 5398 5395 5393 5390 5387 5385 5383 5381 5380 5378 5383 5385 5387 5390 5393 5396 5400 5404 5407 5413 5418 5422 5425 5427 5431 5435 5437 5437 5436 5436 5436 5435 5433 5432 5430 5428 5426 5424
5418 5415 5411 5407 5403 5395 5398 5395 5393 5390 5388 5387 5385 5384 5384 5386 5388 5390 5392 5395 5399 5403 5407 5410 5414 5419 5422 5425 5429 5431 5434 5435 5435 5435 5438 5438 5437 5436 5435 5434 5433 5431 5429
5419 5416 5413 5409 5406 5404 5402 5399 5396 5394 5392 5390 5388 5387 5387 5389 5391 5393 5395 5399 5402 5406 5410 5413 5416 5420 5423 5427 5430 5433 5431 5431 5432 5436 5438 5439 5439 5439 5438 5436 5435 5434 5434
5420 5417 5415 5412 5409 5407 5404 5402 5399 5396 5394 5393 5391 5390 5390 5392 5393 5395 5398 5401 5405 5409 5412 5415 5418 5422 5425 5428 5429 5430 5430 5432 5433 5435 5439 5440 5440 5440 5439 5439 5438 5437 5436
5421 5418 5416 5413 5410 5408 5406 5404 5401 5398 5396 5395 5393 5393 5393 5394 5396 5398 5401 5403 5407 5411 5414 5417 5419 5423 5425 5427 5428 5429 5432 5434 5435 5437 5439 5441 5441 5440 5440 5440 5439 5439 5437